sat.trackr.live / text

‹ back to catalog

ORBCOMM FM112

NORAD 41184 · 2015-081F

PAYLOAD ACTIVE UNKNOWN

§ Identity

Operator
Country
ORB
Launch date
2015-12-22
Launch site
AFETR
Launch vehicle
Mass (kg)
RCS (m²)
0.53

Purposes: comms

External: N2YO · Heavens-Above · Gunter

§ Orbital elements

Epoch: 2026-05-25T01:30:51.020064Z

Period
98.71 min
Inclination
47.0007°
Eccentricity
0.0002464
Mean motion
14.58863732 rev/d
Perigee alt
695.1 km
Apogee alt
698.6 km
Semi-major
7,075.0 km
B*
1.5705e-4
RAAN
19.5907°
Arg perigee
100.1466°
Mean anomaly
259.9698°
Rev number
55,557

§ Raw data

ORBCOMM FM1121 41184U 15081F   26145.06309051  .00000571  00000+0  15705-3 0  99982 41184  47.0007  19.5907 0002464 100.1466 259.9698 14.58863732555575

JSON: /api/v1/satellites/41184 · /tle

For live sub-satellite position, see the globe view (requires WebGL).

§ Visibility from observer

Set your observer location to see the next 7 days of passes ≥ 10°. The values pass through the URL so the page stays shareable.

No JS? Fill the form by hand. The geolocation button needs JavaScript.

§ Radio — SatNOGS DB

ModeDescriptionDownlinkUplink
FM Telemetry 137.663 MHz
FM Telemetry 137.800 MHz

2 transmitters · refreshed weekly from db.satnogs.org